Location: Seven Kings
(51.5667°N, 0.1000°E)
Time: 12:04:07
(UTC+00:00)

NOSS 3-3 (A) - Pass Details

Date: 29 October 2020
Orbit: 826 x 1387 km, 63.4° (Epoch: 22 November)

Event Time Altitude Azimuth Distance (km) Brightness Sun altitude
Rises 18:04:03 0° 195° (SSW) 3,418 7.1 -14.0°
Reaches altitude 10° 18:06:31 10° 188° (S) 2,530 6.3 -14.3°
Maximum altitude 18:11:58 41° 120° (ESE) 1,334 4.3 -15.2°
Enters shadow 18:16:11 19° 60° (ENE) 2,209 5.3 -15.8°
